[Iaude] MPEC D26: 2024 DC [a=2.54,e=0.61,i=2.0,H=26.7]

mpec at cfa.harvard.edu mpec at cfa.harvard.edu
Fri Feb 16 21:03:47 EST 2024


M.P.E.C. 2024-D26                             Issued 2024 February 17, 02:02 UT

     The Minor Planet Electronic Circulars contain information on unusual
         minor planets, routine data on comets and natural satellites,
         and occasional editorial announcements.  They are published
    on behalf of Division F of the International Astronomical Union by the
          Minor Planet Center, Smithsonian Astrophysical Observatory,
                          Cambridge, MA 02138, U.S.A.
			  
             Prepared using the Tamkin Foundation Computer Network

                              MPC at CFA.HARVARD.EDU
            URL https://www.minorplanetcenter.net/    ISSN 1523-6714

                                    2024 DC                                     


Observations:
     K24D00C  C2024 02 13.51802309 35 00.205+41 26 37.99         21.01GVED026F52
     K24D00C  C2024 02 13.52915809 35 14.400+41 27 39.16         21.16GVED026F52
     K24D00C  C2024 02 13.54026909 35 28.625+41 28 39.29         21.74GVED026F52
     K24D00C  C2024 02 13.55140409 35 43.003+41 29 39.34         20.68GVED026F52
     K24D00C  C2024 02 13.60963609 36 59.603+41 34 46.58         20.59GVED026F52
     K24D00C  C2024 02 13.61028209 37 00.412+41 34 50.12         20.77GVED026F52
     K24D00C*1C2024 02 16.33215111 02 35.851+45 10 33.92         20.83GVED026G96
     K24D00C 1C2024 02 16.33739511 02 48.034+45 10 46.88         20.27GVED026G96
     K24D00C 1C2024 02 16.34264911 03 00.180+45 10 59.99         20.07GVED026G96
     K24D00C 1C2024 02 16.34793011 03 12.542+45 11 13.60         20.86GVED026G96
     K24D00C  C2024 02 16.36514211 03 51.200+45 11 46.29         20.4 GVED026H01
     K24D00C KC2024 02 16.37299011 04 10.686+45 12 10.73         20.80GVED026I52
     K24D00C KC2024 02 16.37499611 04 15.341+45 12 14.98         20.98GVED026I52
     K24D00C  C2024 02 16.37503011 04 14.292+45 12 07.92         20.5 GVED026H01
     K24D00C KC2024 02 16.37901711 04 24.737+45 12 23.69         20.87GVED026I52
     K24D00C  C2024 02 16.37926011 04 24.157+45 12 16.83         20.4 GVED026H01
     K24D00C  C2024 02 16.39047411 04 50.382+45 12 39.99         20.9 GVED026H01
     K24D00C KC2024 02 16.50026711 09 12.002+45 15 44.53         20.96GVED026I52
     K24D00C KC2024 02 16.50227311 09 16.888+45 15 46.80         20.52GVED026I52
     K24D00C KC2024 02 16.50428611 09 21.762+45 15 49.03         21.77GVED026I52
     K24D00C KC2024 02 16.50629711 09 26.572+45 15 51.66         20.75GVED026I52
     K24D00C KC2024 02 16.99823911 31 00.97 +45 23 41.1          20.8 GVED026L01
     K24D00C KC2024 02 17.00021411 31 06.13 +45 23 42.0          20.9 GVED026L01
     K24D00C KC2024 02 17.00219011 31 11.25 +45 23 41.5          20.8 GVED026L01
     K24D00C KC2024 02 17.00422411 31 16.53 +45 23 42.8          20.6 GVED026L01
     K24D00C KC2024 02 17.00644611 31 22.26 +45 23 42.1          21.0 GVED026L01

Observer details:
F52 Pan-STARRS 2, Haleakala.  Observers J. Herman, T. Lowe, P. Minguez, A.
    Schultz, I. Smith.  Measurers K. Chambers, T. de Boer, J. Fairlamb, H.
    Gao, M. Huber, C.-C. Lin, E. Magnier, Y. Ramanjooloo, R. Wainscoat, R.
    Weryk.  1.8-m Ritchey-Chretien + CCD.
G96 Mt. Lemmon Survey.  Observers V. F. Carvajal, J. K. Hogan.  Measurers T.
    Beuden, V. F. Carvajal, D. Fay, J. B. Fazekas, D. C. Fuls, A. R. Gibbs, A.
    D. Grauer, H. Groeller, J. K. Hogan, R. A. Kowalski, S. M. Larson, G. J.
    Leonard, D. Rankin, R. L. Seaman, F. C. Shelly, K. W. Wierzchos.  1.5-m
    reflector + 10K CCD.
H01 Magdalena Ridge Observatory, Socorro.  Observers W. H. Ryan, E. V. Ryan.
    Measurer W. H. Ryan.  2.4-m f/8.9 Ritchey-Chretien + CCD.
I52 Steward Observatory, Mt. Lemmon Station.  Observer J. B. Fazekas.
    Measurers E. C. Beshore, D. Fay, J. B. Fazekas, D. C. Fuls, A. R. Gibbs,
    A. D. Grauer, H. Groeller, J. K. Hogan, R. A. Kowalski, S. M. Larson, G.
    J. Leonard, D. Rankin, R. L. Seaman, F. C. Shelly, K. W. Wierzchos.  1.0-m
    prime focus + CCD.
L01 Visnjan Observatory, Tican.  Observer K. Korlevic.  1.0-m f/2.9 reflector
    + CCD.

Orbital elements:
2024 DC                                                  Earth MOID = 0.0259 AU
Epoch 2024 Mar. 31.0 TT = JDT 2460400.5                 Veres                   
M   5.81949              (2000.0)            P               Q                  
n   0.24358412     Peri.   63.04273     -0.98888911     -0.14506876             
a   2.5392379      Node   108.60142     +0.12134046     -0.91383992             
e   0.6130739      Incl.    1.96247     +0.08587679     -0.37927780             
P   4.05           H   26.72          G   0.15           U   8                  
Residuals in seconds of arc
240213 F52  0.1+  0.1+    240216 G96  1.1+  0.7+    240216 I52  0.2+  0.0
240213 F52  0.0   0.3+    240216 H01  0.5-  0.2-    240216 I52  0.3+  0.1-
240213 F52  0.2-  0.0     240216 I52  0.1+  0.1+    240216 I52  0.3-  0.2+
240213 F52  0.0   0.0     240216 I52  0.1-  0.0     240216 L01  0.6-  0.3+
240213 F52  0.5+  0.2-    240216 H01  0.1+  0.0     240217 L01  0.0   0.8+
240213 F52  0.2-  0.0     240216 I52  0.1+  0.0     240217 L01  0.1+  0.1-
240216 G96  0.2-  0.0     240216 H01  0.0   0.1-    240217 L01  0.3+  0.8+
240216 G96  0.2+  0.2-    240216 H01  0.1+  0.1+    240217 L01  0.1+  0.2-
240216 G96  0.1-  0.1-    240216 I52  0.1-  0.1+

Ephemeris:
2024 DC                  a,e,i = 2.54, 0.61, 2                   q = 0.9825
Date    TT    R. A. (2000) Decl.     Delta      r    Elong.  Phase     V
2024 01 18    07 30 23.5 +23 18 08   0.1947  1.1775   173.5     5.5    24.0
...
2024 02 02    07 51 21.1 +28 46 51   0.1035  1.0836   160.6    17.6    22.9
...
2024 02 10    08 39 07.2 +36 06 42   0.06214 1.0436   155.6    23.0    21.9
...
2024 02 16    10 49 26.4 +44 54 05   0.03805 1.0194   145.7    33.0    21.1
2024 02 17    11 30 59.7 +45 23 44   0.03543 1.0159   141.6    37.2    21.0
2024 02 18    12 18 06.9 +44 47 13   0.03349 1.0126   136.3    42.4    21.0
...
2024 02 24    16 02 18.3 +20 35 08   0.03896 0.9961    98.8    78.9    22.4
...
2024 03 03    17 27 32.3 +00 15 55   0.07163 0.9841    82.1    93.7    24.3
...
2024 03 18    18 09 49.4 -09 56 51   0.1423  0.9935    85.2    86.6    25.5

M. P. C. Staff               (C) Copyright 2024 MPC           M.P.E.C. 2024-D26





More information about the Iaude mailing list